Retour au catalogue

CZ-3B R/B

ActifHEO
NORAD 43110·ROCKET BODY·🇨🇳 China

Lancé Jan 11, 2018 depuis Xichang Satellite Launch Center

Loading…

Prochains Passages (prochaines 24 heures)

TLE

FraisSource: Space-Track

Époque: Sep 12, 2026, 17:25 UTC

1 43110U 18003D   26255.72621128  .00003703  00000-0  96463-3 0  9994
2 43110  54.8843  77.5422 5632112  93.9177 328.7631  4.58059055143960

Suivez CZ-3B R/B en temps réel avec AllMySat

Download on the App Store